JA1KWV-11 Weather Reports


Display with metric or nautical units.
time (UTC)temp
F
wind
direction
speed
MPH
gust
MPH
rain 1hr
in
rain 24hr
in
rain mn
in
humidity
%
barometer
mb
20260902223715 86 267 0.0 0.0 0.00 0.00 0.00 92 1010.7
20260902222915 86 267 0.0 0.0 0.00 0.00 0.00 93 1010.6
20260902222115 86 267 0.0 0.0 0.00 0.00 0.00 92 1010.5
20260902221315 86 267 0.0 0.0 0.00 0.00 0.00 92 1010.2
20260902220514 86 267 0.0 0.0 0.00 0.00 0.00 92 1010.3
20260902215714 86 267 0.0 0.0 0.00 0.00 0.00 92 1010.4
20260902214914 86 267 0.0 0.0 0.00 0.00 0.00 92 1010.5
20260902214114 86 267 0.0 0.0 0.00 0.00 0.00 92 1010.4
20260902213314 86 267 0.0 0.0 0.00 0.00 0.00 92 1010.3
20260902212513 86 267 0.0 0.0 0.00 0.00 0.00 92 1010.6
20260902211713 86 267 0.0 0.0 0.00 0.00 0.00 92 1010.8
20260902210913 86 267 0.0 0.0 0.00 0.00 0.00 92 1011.0
20260902210113 86 267 0.0 0.0 0.00 0.00 0.00 92 1010.9
20260902205312 86 267 0.0 0.0 0.00 0.00 0.00 92 1010.9
20260902204512 86 267 0.0 0.0 0.00 0.00 0.00 92 1010.6
20260902203712 86 267 0.0 0.0 0.00 0.00 0.00 91 1010.7
20260902202912 86 267 0.0 0.0 0.00 0.00 0.00 92 1010.6
20260902202111 86 267 0.0 0.0 0.00 0.00 0.00 91 1010.6
20260902201311 86 267 0.0 0.0 0.00 0.00 0.00 91 1010.8
20260902200511 86 267 0.0 0.0 0.00 0.00 0.00 92 1011.1
20260902195711 86 267 0.0 0.0 0.00 0.00 0.00 92 1011.1
20260902194910 86 267 0.0 0.0 0.00 0.00 0.00 92 1011.1
20260902194110 86 267 0.0 0.0 0.00 0.00 0.00 92 1011.0
20260902193310 86 267 0.0 0.0 0.00 0.00 0.00 91 1011.0
20260902192510 86 267 0.0 0.0 0.00 0.00 0.00 91 1011.5
20260902191710 86 267 0.0 0.0 0.00 0.00 0.00 92 1011.4
20260902190909 86 267 0.0 0.0 0.00 0.00 0.00 90 1011.7
20260902190109 86 267 0.0 0.0 0.00 0.00 0.00 92 1011.6
20260902185309 86 267 0.0 0.0 0.00 0.00 0.00 91 1011.7
20260902184509 86 267 0.0 0.0 0.00 0.00 0.00 90 1011.5
20260902183709 86 267 0.0 0.0 0.00 0.00 0.00 91 1011.3
20260902182908 86 267 0.0 0.0 0.00 0.00 0.00 91 1011.1
20260902182108 86 267 0.0 0.0 0.00 0.00 0.00 91 1011.4
20260902181308 86 267 0.0 0.0 0.00 0.00 0.00 91 1011.4
20260902180508 86 267 0.0 0.0 0.00 0.00 0.00 91 1011.7
20260902175707 86 267 0.0 0.0 0.00 0.00 0.00 91 1011.8
20260902174907 86 267 0.0 0.0 0.00 0.00 0.00 91 1011.8
20260902174107 86 267 0.0 0.0 0.00 0.00 0.00 90 1011.9
20260902173307 86 267 0.0 0.0 0.00 0.00 0.00 90 1011.8
20260902172507 86 267 0.0 0.0 0.00 0.00 0.00 89 1012.1
20260902171706 86 267 0.0 0.0 0.00 0.00 0.00 89 1011.9
20260902170906 86 267 0.0 0.0 0.00 0.00 0.00 90 1012.1
20260902170106 86 267 0.0 0.0 0.00 0.00 0.00 88 1012.1
20260902165309 86 267 0.0 0.0 0.00 0.00 0.00 87 1012.0
20260902164505 86 267 0.0 0.0 0.00 0.00 0.00 87 1012.1
20260902163705 86 267 0.0 0.0 0.00 0.00 0.00 85 1012.0
20260902162905 86 267 0.0 0.0 0.00 0.00 0.00 86 1011.8
20260902162105 86 267 0.0 0.0 0.00 0.00 0.00 84 1012.1
20260902161305 86 267 0.0 0.0 0.00 0.00 0.00 87 1012.2
20260902160504 86 267 0.0 0.0 0.00 0.00 0.00 84 1012.2
20260902155704 86 267 0.0 0.0 0.00 0.00 0.00 88 1012.3
20260902154904 86 267 0.0 0.0 0.00 0.00 0.00 85 1012.4
20260902154104 86 267 0.0 0.0 0.00 0.00 0.00 89 1012.4
20260902153304 86 267 0.0 0.0 0.00 0.00 0.00 87 1012.6
20260902152503 86 267 0.0 0.0 0.00 0.00 0.00 90 1012.6
20260902151703 86 267 0.0 0.0 0.00 0.00 0.00 92 1012.6
20260902150903 86 267 0.0 0.0 0.00 0.00 0.00 89 1012.6
20260902145305 86 267 0.0 0.0 0.00 0.00 0.00 91 1012.8
20260902144502 86 267 0.0 0.0 0.00 0.00 0.00 87 1012.8
20260902143702 86 267 0.0 0.0 0.00 0.00 0.00 89 1012.8
20260902142902 86 267 0.0 0.0 0.00 0.00 0.00 90 1012.9
20260902142102 86 267 0.0 0.0 0.00 0.00 0.00 88 1012.9
20260902141301 86 267 0.0 0.0 0.00 0.00 0.00 89 1013.0
20260902140501 86 267 0.0 0.0 0.00 0.00 0.00 89 1012.9
20260902135701 86 267 0.0 0.0 0.00 0.00 0.00 88 1012.8
20260902134901 86 267 0.0 0.0 0.00 0.00 0.00 89 1012.9
20260902134100 86 267 0.0 0.0 0.00 0.00 0.00 89 1012.9
20260902133300 87 267 0.0 0.0 0.00 0.00 0.00 88 1013.0
20260902132500 87 267 0.0 0.0 0.00 0.00 0.00 89 1012.9
20260902131700 87 267 0.0 0.0 0.00 0.00 0.00 88 1012.9
20260902130900 87 267 0.0 0.0 0.00 0.00 0.00 89 1012.9
20260902130059 86 267 0.0 0.0 0.00 0.00 0.00 89 1012.9
20260902125259 87 267 0.0 0.0 0.00 0.00 0.00 89 1013.0
20260902124459 87 267 0.0 0.0 0.00 0.00 0.00 89 1013.1
20260902123659 87 267 0.0 0.0 0.00 0.00 0.00 89 1013.1
20260902122858 87 267 0.0 0.0 0.00 0.00 0.00 89 1013.1
20260902122058 87 267 0.0 0.0 0.00 0.00 0.00 89 1013.1
20260902121258 87 267 0.0 0.0 0.00 0.00 0.00 90 1013.3
20260902120458 87 267 0.0 0.0 0.00 0.00 0.00 89 1013.1
20260902115658 87 267 0.0 0.0 0.00 0.00 0.00 89 1013.3
20260902114857 87 267 0.0 0.0 0.00 0.00 0.00 90 1013.4
20260902114057 87 267 0.0 0.0 0.00 0.00 0.00 90 1013.3
20260902113257 87 267 0.0 0.0 0.00 0.00 0.00 90 1013.4
20260902112457 87 267 0.0 0.0 0.00 0.00 0.00 88 1013.4
20260902111656 87 267 0.0 0.0 0.00 0.00 0.00 90 1013.3
20260902110856 87 267 0.0 0.0 0.00 0.00 0.00 90 1013.3
20260902110056 87 267 0.0 0.0 0.00 0.00 0.00 88 1013.3
20260902105256 87 267 0.0 0.0 0.00 0.00 0.00 90 1013.4
20260902104456 87 267 0.0 0.0 0.00 0.00 0.00 90 1013.3
20260902103655 87 267 0.0 0.0 0.00 0.00 0.00 90 1013.4
20260902102855 87 267 0.0 0.0 0.00 0.00 0.00 90 1013.4
20260902102055 87 267 0.0 0.0 0.00 0.00 0.00 91 1013.2
20260902101255 87 267 0.0 0.0 0.00 0.00 0.00 91 1013.0
20260902100454 87 267 0.0 0.0 0.00 0.00 0.00 91 1012.9
20260902095654 87 267 0.0 0.0 0.00 0.00 0.00 90 1012.9
20260902094854 87 267 0.0 0.0 0.00 0.00 0.00 91 1012.8
20260902094054 87 267 0.0 0.0 0.00 0.00 0.00 92 1012.7
20260902093253 87 267 0.0 0.0 0.00 0.00 0.00 92 1012.8
20260902092453 87 267 0.0 0.0 0.00 0.00 0.00 93 1012.6
20260902091653 87 267 0.0 0.0 0.00 0.00 0.00 94 1012.6
20260902090853 87 267 0.0 0.0 0.00 0.00 0.00 93 1012.5
20260902090053 87 267 0.0 0.0 0.00 0.00 0.00 94 1012.4
20260902085252 87 267 0.0 0.0 0.00 0.00 0.00 93 1012.4
20260902084452 87 267 0.0 0.0 0.00 0.00 0.00 93 1012.5
20260902083652 87 267 0.0 0.0 0.00 0.00 0.00 94 1012.5
20260902082852 87 267 0.0 0.0 0.00 0.00 0.00 94 1012.6
20260902082052 87 267 0.0 0.0 0.00 0.00 0.00 94 1012.7
20260902081251 88 267 0.0 0.0 0.00 0.00 0.00 94 1012.6
20260902080451 87 267 0.0 0.0 0.00 0.00 0.00 94 1012.3
20260902075651 88 267 0.0 0.0 0.00 0.00 0.00 94 1012.6
20260902074851 87 267 0.0 0.0 0.00 0.00 0.00 94 1012.4
20260902074050 87 267 0.0 0.0 0.00 0.00 0.00 94 1012.3
20260902073250 87 267 0.0 0.0 0.00 0.00 0.00 94 1012.3
20260902072450 87 267 0.0 0.0 0.00 0.00 0.00 93 1012.2
20260902071650 87 267 0.0 0.0 0.00 0.00 0.00 93 1012.1
20260902070850 87 267 0.0 0.0 0.00 0.00 0.00 93 1012.3
20260902070049 87 267 0.0 0.0 0.00 0.00 0.00 92 1012.2
20260902065249 87 267 0.0 0.0 0.00 0.00 0.00 93 1011.9
20260902064449 87 267 0.0 0.0 0.00 0.00 0.00 93 1012.1
20260902063649 87 267 0.0 0.0 0.00 0.00 0.00 92 1012.0
20260902062848 87 267 0.0 0.0 0.00 0.00 0.00 94 1011.9
20260902062048 87 267 0.0 0.0 0.00 0.00 0.00 93 1012.1
20260902061248 87 267 0.0 0.0 0.00 0.00 0.00 93 1012.0
20260902060448 87 267 0.0 0.0 0.00 0.00 0.00 93 1012.1
20260902055648 87 267 0.0 0.0 0.00 0.00 0.00 93 1012.2
20260902054847 87 267 0.0 0.0 0.00 0.00 0.00 92 1012.2
20260902054047 87 267 0.0 0.0 0.00 0.00 0.00 94 1012.2
20260902053247 87 267 0.0 0.0 0.00 0.00 0.00 92 1012.4
20260902052447 87 267 0.0 0.0 0.00 0.00 0.00 93 1012.5
20260902051647 87 267 0.0 0.0 0.00 0.00 0.00 94 1012.6
20260902050846 87 267 0.0 0.0 0.00 0.00 0.00 94 1012.7
20260902050046 87 267 0.0 0.0 0.00 0.00 0.00 94 1012.8
20260902045246 87 267 0.0 0.0 0.00 0.00 0.00 94 1012.9
20260902044446 87 267 0.0 0.0 0.00 0.00 0.00 94 1012.9
20260902043645 87 267 0.0 0.0 0.00 0.00 0.00 94 1013.0
20260902042845 87 267 0.0 0.0 0.00 0.00 0.00 94 1012.9
20260902042045 86 267 0.0 0.0 0.00 0.00 0.00 94 1012.9
20260902041245 86 267 0.0 0.0 0.00 0.00 0.00 94 1012.8
20260902040445 86 267 0.0 0.0 0.00 0.00 0.00 94 1012.9
20260902035644 86 267 0.0 0.0 0.00 0.00 0.00 94 1013.1
20260902034844 86 267 0.0 0.0 0.00 0.00 0.00 94 1013.2
20260902034044 86 267 0.0 0.0 0.00 0.00 0.00 94 1013.0
20260902033244 86 267 0.0 0.0 0.00 0.00 0.00 95 1013.2
20260902032443 86 267 0.0 0.0 0.00 0.00 0.00 95 1013.3
20260902031643 86 267 0.0 0.0 0.00 0.00 0.00 94 1013.3
20260902030843 86 267 0.0 0.0 0.00 0.00 0.00 95 1013.3
20260902030043 86 267 0.0 0.0 0.00 0.00 0.00 95 1013.4
20260902025243 86 267 0.0 0.0 0.00 0.00 0.00 95 1013.3
20260902024442 86 267 0.0 0.0 0.00 0.00 0.00 96 1013.4
20260902023642 86 267 0.0 0.0 0.00 0.00 0.00 96 1013.7
20260902022842 86 267 0.0 0.0 0.00 0.00 0.00 97 1013.6
20260902022042 86 267 0.0 0.0 0.00 0.00 0.00 97 1013.6
20260902021241 86 267 0.0 0.0 0.00 0.00 0.00 96 1013.9
20260902020441 86 267 0.0 0.0 0.00 0.00 0.00 97 1013.7
20260902015641 86 267 0.0 0.0 0.00 0.00 0.00 98 1013.9
20260902014841 86 267 0.0 0.0 0.00 0.00 0.00 97 1013.9
20260902014041 85 267 0.0 0.0 0.00 0.00 0.00 98 1014.1
20260902013240 85 267 0.0 0.0 0.00 0.00 0.00 98 1014.1
20260902012440 85 267 0.0 0.0 0.00 0.00 0.00 98 1014.1
20260902011640 85 267 0.0 0.0 0.00 0.00 0.00 98 1014.3
20260902010840 85 267 0.0 0.0 0.00 0.00 0.00 98 1014.5
20260902010039 85 267 0.0 0.0 0.00 0.00 0.00 98 1014.5
20260902005239 85 267 0.0 0.0 0.00 0.00 0.00 97 1014.5
20260902004439 85 267 0.0 0.0 0.00 0.00 0.00 98 1014.3
20260902003639 85 267 0.0 0.0 0.00 0.00 0.00 97 1014.5
20260902002839 85 267 0.0 0.0 0.00 0.00 0.00 98 1014.4
20260902002038 85 267 0.0 0.0 0.00 0.00 0.00 97 1014.4
20260902001238 85 267 0.0 0.0 0.00 0.00 0.00 96 1014.3
20260902000438 85 267 0.0 0.0 0.00 0.00 0.00 97 1014.5
20260901235638 85 267 0.0 0.0 0.00 0.00 0.00 96 1014.5
20260901234838 85 267 0.0 0.0 0.00 0.00 0.00 96 1014.5
20260901234037 85 267 0.0 0.0 0.00 0.00 0.00 97 1014.5
20260901233237 85 267 0.0 0.0 0.00 0.00 0.00 96 1014.4
20260901232437 85 267 0.0 0.0 0.00 0.00 0.00 96 1014.3
20260901231637 85 267 0.0 0.0 0.00 0.00 0.00 96 1014.4
20260901230836 85 267 0.0 0.0 0.00 0.00 0.00 95 1014.6
20260901230036 85 267 0.0 0.0 0.00 0.00 0.00 95 1014.2
20260901225236 85 267 0.0 0.0 0.00 0.00 0.00 95 1014.1
20260901224436 85 267 0.0 0.0 0.00 0.00 0.00 95 1014.5